This is the latest recevied weather packets stored in our database for station/object KC5TIL. If no packets are shown the sender has not sent any weather packets the latest 10 day(s).
| Time | Temp. | Humidity | Pressure | Rain* | Wind** | Luminosity | Snow |
|---|---|---|---|---|---|---|---|
| 1777761010 | 25.56° C | 33% | 1019.7 hPa | 0 mm | - | 391 W/m² | - |
| 1777760707 | 25° C | 35% | 1019.7 hPa | 0 mm | - | 421 W/m² | - |
| 1777760403 | 25° C | 36% | 1019.7 hPa | 0 mm | - | 436 W/m² | - |
| 1777760098 | 25° C | 37% | 1019.8 hPa | 0 mm | - | 418 W/m² | - |
| 1777759796 | 25.56° C | 34% | 1019.8 hPa | 0 mm | - | 452 W/m² | - |
| 1777759491 | 25.56° C | 34% | 1019.7 hPa | 0 mm | - | 479 W/m² | - |
| 1777759188 | 25.56° C | 34% | 1019.9 hPa | 0 mm | - | 480 W/m² | - |
| 1777758886 | 25.56° C | 35% | 1020 hPa | 0 mm | - | 484 W/m² | - |
| 1777758582 | 25° C | 34% | 1020 hPa | 0 mm | - | 504 W/m² | - |
| 1777758279 | 25.56° C | 33% | 1019.9 hPa | 0 mm | - | 525 W/m² | - |
| 1777757977 | 26.11° C | 34% | 1020 hPa | 0 mm | - | 550 W/m² | - |
| 1777757673 | 26.11° C | 32% | 1020.3 hPa | 0 mm | - | 521 W/m² | - |
| 1777757372 | 25.56° C | 34% | 1020.2 hPa | 0 mm | - | 521 W/m² | - |
| 1777757070 | 25° C | 35% | 1020.4 hPa | 0 mm | - | 553 W/m² | - |
| 1777756767 | 25.56° C | 33% | 1020.4 hPa | 0 mm | - | 582 W/m² | - |
| 1777756463 | 25° C | 32% | 1020.6 hPa | 0 mm | - | 594 W/m² | - |
| 1777756160 | 25° C | 34% | 1020.5 hPa | 0 mm | - | 594 W/m² | - |
| 1777755857 | 25° C | 37% | 1020.5 hPa | 0 mm | - | 590 W/m² | - |
| 1777755554 | 25.56° C | 35% | 1020.5 hPa | 0 mm | - | 592 W/m² | - |
| 1777755250 | 24.44° C | 34% | 1020.7 hPa | 0 mm | - | 578 W/m² | - |
| 1777754948 | 25.56° C | 34% | 1020.6 hPa | 0 mm | - | 617 W/m² | - |
| 1777754644 | 25° C | 37% | 1020.8 hPa | 0 mm | - | 631 W/m² | - |
| 1777754343 | 25° C | 34% | 1020.9 hPa | 0 mm | - | 638 W/m² | - |
| 1777754040 | 25° C | 34% | 1021 hPa | 0 mm | - | 646 W/m² | - |
| 1777753735 | 25° C | 35% | 1020.9 hPa | 0 mm | - | 657 W/m² | - |
* Rain latest hour (hover to see other rain measurements)
** Current wind speed in m/s (hover to see current wind gust speed)